| time (UTC) | temp F | wind direction | speed MPH | gust MPH | rain 1hr in | rain 24hr in | rain mn in | humidity % | barometer mb |
| 20260504130449 | 43 | 76 | 0.0 | 1.0 | 0.00 | 0.00 | 0.00 | 67 | 1016.6 |
| 20260504110450 | 44 | 42 | 1.0 | 3.0 | 0.00 | 0.00 | 0.00 | 62 | 1016.8 |
| 20260504100450 | 45 | 40 | 2.0 | 6.0 | 0.00 | 0.00 | 0.00 | 57 | 1016.9 |
| 20260504082004 | 41 | 0 | 0.0 | 1.0 | 0.00 | 0.00 | 0.00 | 60 | 1016.5 |
| 20260504081503 | 41 | 70 | 0.0 | 2.0 | 0.00 | 0.00 | 0.00 | 60 | 1016.4 |
| 20260504081025 | 41 | 66 | 1.0 | 2.0 | 0.00 | 0.00 | 0.00 | 60 | 1016.3 |
| 20260504080525 | 40 | 47 | 0.0 | 2.0 | 0.00 | 0.00 | 0.00 | 61 | 1016.3 |
| 20260504050503 | 54 | 35 | 6.0 | 13.0 | 0.00 | 0.00 | 0.00 | 41 | 1010.5 |
| 20260504050003 | 52 | 29 | 5.0 | 11.0 | 0.00 | 0.00 | 0.00 | 44 | 1010.6 |
| 20260504045503 | 52 | 27 | 3.0 | 10.0 | 0.00 | 0.00 | 0.00 | 45 | 1010.5 |
| 20260504045003 | 52 | 27 | 2.0 | 4.0 | 0.00 | 0.00 | 0.00 | 42 | 1009.3 |
| 20260504044504 | 51 | 337 | 3.0 | 6.0 | 0.00 | 0.00 | 0.00 | 43 | 1009.1 |
| 20260504044003 | 52 | 273 | 3.0 | 6.0 | 0.00 | 0.00 | 0.00 | 42 | 1009.0 |
| 20260504043503 | 52 | 275 | 4.0 | 6.0 | 0.00 | 0.00 | 0.00 | 42 | 1009.0 |
| 20260504043003 | 52 | 280 | 3.0 | 4.0 | 0.00 | 0.00 | 0.00 | 42 | 1009.0 |
| 20260504042503 | 52 | 288 | 3.0 | 4.0 | 0.00 | 0.00 | 0.00 | 42 | 1009.1 |
| 20260504042003 | 52 | 275 | 3.0 | 4.0 | 0.00 | 0.00 | 0.00 | 42 | 1009.3 |
| 20260504041503 | 52 | 276 | 3.0 | 4.0 | 0.00 | 0.00 | 0.00 | 42 | 1009.0 |
| 20260504041024 | 52 | 278 | 3.0 | 4.0 | 0.00 | 0.00 | 0.00 | 42 | 1009.4 |
| 20260504040504 | 52 | 270 | 4.0 | 6.0 | 0.00 | 0.00 | 0.00 | 42 | 1009.1 |
| 20260504040004 | 52 | 269 | 3.0 | 6.0 | 0.00 | 0.00 | 0.00 | 42 | 1009.0 |
| 20260504035504 | 52 | 284 | 3.0 | 4.0 | 0.00 | 0.00 | 0.00 | 42 | 1008.8 |
| 20260504035024 | 52 | 272 | 3.0 | 4.0 | 0.00 | 0.00 | 0.00 | 41 | 1008.9 |
| 20260504034504 | 52 | 273 | 2.0 | 3.0 | 0.00 | 0.00 | 0.00 | 42 | 1008.8 |
| 20260504034004 | 52 | 343 | 1.0 | 3.0 | 0.00 | 0.00 | 0.00 | 42 | 1008.8 |
| 20260504033524 | 52 | 10 | 1.0 | 3.0 | 0.00 | 0.00 | 0.00 | 43 | 1008.8 |
| 20260504033024 | 51 | 0 | 2.0 | 3.0 | 0.00 | 0.00 | 0.00 | 43 | 1008.7 |
| 20260504032524 | 51 | 270 | 2.0 | 3.0 | 0.00 | 0.00 | 0.00 | 42 | 1008.8 |
| 20260504032024 | 52 | 285 | 2.0 | 3.0 | 0.00 | 0.00 | 0.00 | 41 | 1008.8 |
| 20260504031503 | 52 | 284 | 3.0 | 3.0 | 0.00 | 0.00 | 0.00 | 39 | 1008.8 |
| 20260504031003 | 53 | 273 | 2.0 | 3.0 | 0.00 | 0.01 | 0.00 | 39 | 1008.9 |
| 20260504030503 | 54 | 302 | 1.0 | 3.0 | 0.00 | 0.03 | 0.00 | 39 | 1008.8 |
| 20260504030024 | 56 | 51 | 0.0 | 2.0 | 0.00 | 0.03 | 0.00 | 37 | 1008.7 |
| 20260504025525 | 56 | 0 | 0.0 | 2.0 | 0.00 | 0.03 | 0.00 | 36 | 1008.7 |
| 20260504025003 | 57 | 37 | 1.0 | 2.0 | 0.00 | 0.03 | 0.00 | 35 | 1008.7 |
| 20260504024503 | 57 | 47 | 1.0 | 2.0 | 0.00 | 0.03 | 0.00 | 35 | 1008.5 |
| 20260504024024 | 57 | 36 | 1.0 | 2.0 | 0.00 | 0.03 | 0.00 | 35 | 1008.8 |
| 20260504023503 | 58 | 43 | 1.0 | 2.0 | 0.00 | 0.03 | 0.00 | 36 | 1008.7 |
| 20260504023024 | 59 | 45 | 1.0 | 1.0 | 0.00 | 0.03 | 0.00 | 36 | 1008.7 |
| 20260504022503 | 60 | 58 | 1.0 | 1.0 | 0.00 | 0.03 | 0.00 | 35 | 1008.6 |
| 20260504022003 | 62 | 60 | 1.0 | 1.0 | 0.00 | 0.03 | 0.00 | 34 | 1008.6 |
| 20260504021503 | 63 | 51 | 1.0 | 1.0 | 0.00 | 0.03 | 0.00 | 32 | 1008.6 |
| 20260504021003 | 64 | 53 | 1.0 | 1.0 | 0.00 | 0.03 | 0.00 | 31 | 1008.7 |
| 20260504020503 | 66 | 62 | 1.0 | 3.0 | 0.00 | 0.03 | 0.00 | 29 | 1008.5 |
| 20260504020004 | 67 | 67 | 2.0 | 4.0 | 0.00 | 0.03 | 0.00 | 27 | 1008.6 |
| 20260504015503 | 67 | 358 | 3.0 | 6.0 | 0.00 | 0.03 | 0.00 | 26 | 1008.3 |
| 20260504015003 | 69 | 359 | 3.0 | 6.0 | 0.00 | 0.03 | 0.00 | 25 | 1008.6 |
| 20260504014503 | 70 | 333 | 3.0 | 4.0 | 0.00 | 0.03 | 0.00 | 24 | 1008.7 |
| 20260504014024 | 70 | 358 | 3.0 | 6.0 | 0.00 | 0.03 | 0.00 | 23 | 1008.7 |
| 20260504013524 | 70 | 360 | 3.0 | 7.0 | 0.00 | 0.03 | 0.00 | 22 | 1008.5 |
| 20260504013003 | 70 | 1 | 4.0 | 7.0 | 0.00 | 0.03 | 0.00 | 22 | 1008.7 |
| 20260504012503 | 71 | 345 | 4.0 | 7.0 | 0.00 | 0.03 | 0.00 | 22 | 1008.6 |
| 20260504012003 | 70 | 359 | 4.0 | 8.0 | 0.00 | 0.03 | 0.00 | 22 | 1008.7 |
| 20260504011524 | 70 | 331 | 4.0 | 9.0 | 0.00 | 0.03 | 0.00 | 21 | 1008.6 |
| 20260504011003 | 72 | 354 | 5.0 | 9.0 | 0.00 | 0.03 | 0.00 | 20 | 1008.7 |
| 20260504010503 | 72 | 343 | 4.0 | 10.0 | 0.00 | 0.03 | 0.00 | 20 | 1008.8 |
| 20260504010004 | 73 | 350 | 5.0 | 10.0 | 0.00 | 0.03 | 0.00 | 19 | 1008.8 |
| 20260504005503 | 73 | 317 | 4.0 | 9.0 | 0.00 | 0.03 | 0.00 | 18 | 1008.7 |
| 20260504005004 | 73 | 339 | 3.0 | 7.0 | 0.00 | 0.03 | 0.00 | 18 | 1008.8 |
| 20260504004503 | 73 | 43 | 4.0 | 8.0 | 0.00 | 0.03 | 0.00 | 18 | 1008.7 |
| 20260504004003 | 73 | 21 | 5.0 | 8.0 | 0.00 | 0.03 | 0.00 | 17 | 1008.6 |
| 20260504003503 | 74 | 346 | 5.0 | 8.0 | 0.00 | 0.03 | 0.00 | 18 | 1008.9 |
| 20260504003003 | 74 | 3 | 4.0 | 8.0 | 0.00 | 0.03 | 0.00 | 17 | 1008.7 |
| 20260504002503 | 75 | 319 | 3.0 | 8.0 | 0.00 | 0.03 | 0.00 | 16 | 1008.9 |
| 20260504002024 | 75 | 318 | 4.0 | 10.0 | 0.00 | 0.03 | 0.00 | 16 | 1008.8 |
| 20260504001503 | 75 | 16 | 4.0 | 10.0 | 0.00 | 0.03 | 0.00 | 16 | 1008.8 |
| 20260504001024 | 75 | 327 | 4.0 | 10.0 | 0.00 | 0.03 | 0.00 | 15 | 1008.8 |
| 20260504000503 | 75 | 351 | 4.0 | 7.0 | 0.00 | 0.03 | 0.00 | 16 | 1008.8 |
| 20260504000003 | 76 | 332 | 3.0 | 7.0 | 0.00 | 0.03 | 0.00 | 15 | 1008.8 |
| 20260503235503 | 77 | 278 | 3.0 | 6.0 | 0.00 | 0.03 | 0.00 | 14 | 1009.0 |
| 20260503235003 | 77 | 291 | 3.0 | 6.0 | 0.00 | 0.03 | 0.00 | 15 | 1008.9 |
| 20260503234503 | 76 | 328 | 3.0 | 7.0 | 0.00 | 0.03 | 0.00 | 15 | 1009.0 |
| 20260503234003 | 75 | 344 | 3.0 | 8.0 | 0.00 | 0.03 | 0.00 | 15 | 1009.1 |
| 20260503233524 | 76 | 354 | 3.0 | 8.0 | 0.00 | 0.03 | 0.00 | 16 | 1009.0 |
| 20260503233003 | 76 | 336 | 5.0 | 8.0 | 0.00 | 0.03 | 0.00 | 15 | 1009.4 |
| 20260503232503 | 77 | 318 | 5.0 | 8.0 | 0.00 | 0.03 | 0.00 | 15 | 1009.0 |
| 20260503232003 | 78 | 336 | 4.0 | 8.0 | 0.00 | 0.03 | 0.00 | 14 | 1009.3 |
| 20260503231503 | 77 | 278 | 4.0 | 8.0 | 0.00 | 0.03 | 0.00 | 15 | 1009.0 |
| 20260503231003 | 78 | 6 | 3.0 | 8.0 | 0.00 | 0.03 | 0.00 | 14 | 1009.1 |
| 20260503230503 | 78 | 314 | 3.0 | 7.0 | 0.00 | 0.03 | 0.00 | 14 | 1009.3 |
| 20260503230003 | 78 | 297 | 3.0 | 8.0 | 0.00 | 0.03 | 0.00 | 15 | 1009.3 |
| 20260503225503 | 78 | 46 | 3.0 | 8.0 | 0.00 | 0.03 | 0.00 | 14 | 1009.1 |
| 20260503225003 | 78 | 266 | 3.0 | 8.0 | 0.00 | 0.03 | 0.00 | 15 | 1009.3 |
| 20260503224503 | 78 | 234 | 3.0 | 7.0 | 0.00 | 0.03 | 0.00 | 14 | 1009.5 |
| 20260503224003 | 78 | 213 | 4.0 | 10.0 | 0.00 | 0.03 | 0.00 | 14 | 1009.4 |
| 20260503223524 | 78 | 278 | 5.0 | 10.0 | 0.00 | 0.03 | 0.00 | 14 | 1009.5 |
| 20260503223003 | 78 | 290 | 5.0 | 10.0 | 0.00 | 0.03 | 0.00 | 13 | 1009.5 |
| 20260503222503 | 78 | 265 | 4.0 | 8.0 | 0.00 | 0.03 | 0.00 | 13 | 1009.5 |
| 20260503222024 | 77 | 9 | 3.0 | 8.0 | 0.00 | 0.03 | 0.00 | 15 | 1009.6 |
| 20260503221503 | 77 | 24 | 2.0 | 8.0 | 0.00 | 0.03 | 0.00 | 17 | 1009.7 |
| 20260503221003 | 76 | 40 | 2.0 | 7.0 | 0.00 | 0.03 | 0.00 | 17 | 1009.8 |
| 20260503220503 | 76 | 349 | 4.0 | 9.0 | 0.00 | 0.03 | 0.00 | 15 | 1009.9 |
| 20260503220003 | 77 | 353 | 4.0 | 9.0 | 0.00 | 0.03 | 0.00 | 16 | 1009.8 |
| 20260503215503 | 77 | 297 | 3.0 | 9.0 | 0.00 | 0.03 | 0.00 | 15 | 1009.8 |
| 20260503214931 | 76 | 267 | 3.0 | 9.0 | 0.00 | 0.03 | 0.00 | 15 | 1009.9 |
| 20260503214431 | 77 | 164 | 4.0 | 10.0 | 0.00 | 0.03 | 0.00 | 15 | 1010.0 |
| 20260503213932 | 78 | 292 | 4.0 | 10.0 | 0.00 | 0.03 | 0.00 | 16 | 1009.9 |
| 20260503213431 | 77 | 281 | 3.0 | 7.0 | 0.00 | 0.03 | 0.00 | 17 | 1010.0 |
| 20260503212932 | 76 | 122 | 2.0 | 13.0 | 0.00 | 0.03 | 0.00 | 21 | 1010.1 |
| 20260503212452 | 75 | 230 | 4.0 | 13.0 | 0.00 | 0.03 | 0.00 | 18 | 1010.4 |
| 20260503211931 | 76 | 59 | 4.0 | 13.0 | 0.00 | 0.03 | 0.00 | 16 | 1010.4 |
| 20260503211431 | 76 | 343 | 3.0 | 9.0 | 0.00 | 0.03 | 0.00 | 18 | 1010.7 |
| 20260503210931 | 77 | 5 | 3.0 | 9.0 | 0.00 | 0.03 | 0.00 | 18 | 1010.6 |
| 20260503210431 | 76 | 327 | 3.0 | 9.0 | 0.00 | 0.03 | 0.00 | 18 | 1010.8 |
| 20260503205952 | 76 | 50 | 3.0 | 7.0 | 0.00 | 0.03 | 0.00 | 18 | 1010.6 |
| 20260503205431 | 76 | 317 | 4.0 | 7.0 | 0.00 | 0.03 | 0.00 | 18 | 1010.8 |
| 20260503204931 | 77 | 314 | 4.0 | 7.0 | 0.00 | 0.03 | 0.00 | 18 | 1010.9 |
| 20260503204431 | 76 | 301 | 2.0 | 8.0 | 0.00 | 0.03 | 0.00 | 19 | 1011.0 |
| 20260503203931 | 74 | 3 | 2.0 | 8.0 | 0.00 | 0.03 | 0.00 | 22 | 1011.1 |
| 20260503203452 | 74 | 46 | 2.0 | 8.0 | 0.00 | 0.03 | 0.00 | 22 | 1010.9 |
| 20260503202931 | 74 | 46 | 1.0 | 7.0 | 0.00 | 0.03 | 0.00 | 21 | 1011.3 |
| 20260503202452 | 75 | 37 | 3.0 | 10.0 | 0.00 | 0.03 | 0.00 | 20 | 1011.4 |
| 20260503201931 | 74 | 39 | 4.0 | 10.0 | 0.00 | 0.03 | 0.00 | 21 | 1011.4 |
| 20260503201431 | 75 | 6 | 4.0 | 9.0 | 0.00 | 0.03 | 0.00 | 22 | 1011.4 |
| 20260503200952 | 75 | 296 | 4.0 | 9.0 | 0.00 | 0.03 | 0.00 | 19 | 1011.4 |
| 20260503200431 | 75 | 7 | 3.0 | 9.0 | 0.00 | 0.03 | 0.00 | 21 | 1011.6 |
| 20260503195932 | 75 | 105 | 3.0 | 10.0 | 0.00 | 0.03 | 0.00 | 20 | 1011.3 |
| 20260503195431 | 73 | 326 | 3.0 | 10.0 | 0.00 | 0.03 | 0.00 | 23 | 1011.6 |
| 20260503194931 | 73 | 65 | 3.0 | 8.0 | 0.00 | 0.03 | 0.00 | 22 | 1011.3 |
| 20260503194431 | 74 | 1 | 3.0 | 9.0 | 0.00 | 0.03 | 0.00 | 21 | 1011.7 |
| 20260503193932 | 73 | 18 | 3.0 | 9.0 | 0.00 | 0.03 | 0.00 | 22 | 1011.6 |
| 20260503193431 | 73 | 40 | 3.0 | 8.0 | 0.00 | 0.03 | 0.00 | 23 | 1012.0 |
| 20260503192931 | 73 | 122 | 4.0 | 9.0 | 0.00 | 0.03 | 0.00 | 23 | 1011.9 |
| 20260503192431 | 74 | 311 | 4.0 | 9.0 | 0.00 | 0.03 | 0.00 | 21 | 1012.0 |
| 20260503191952 | 73 | 309 | 3.0 | 9.0 | 0.00 | 0.03 | 0.00 | 23 | 1012.1 |
| 20260503191431 | 72 | 58 | 4.0 | 9.0 | 0.00 | 0.03 | 0.00 | 23 | 1012.1 |
| 20260503190931 | 73 | 28 | 4.0 | 9.0 | 0.00 | 0.03 | 0.00 | 23 | 1012.4 |
| 20260503190431 | 74 | 314 | 3.0 | 9.0 | 0.00 | 0.03 | 0.00 | 24 | 1012.4 |
| 20260503185933 | 73 | 334 | 3.0 | 9.0 | 0.00 | 0.03 | 0.00 | 23 | 1012.6 |
| 20260503185431 | 72 | 357 | 3.0 | 10.0 | 0.00 | 0.03 | 0.00 | 24 | 1012.7 |
| 20260503184931 | 72 | 23 | 3.0 | 10.0 | 0.00 | 0.03 | 0.00 | 23 | 1012.5 |
| 20260503184431 | 73 | 60 | 3.0 | 8.0 | 0.00 | 0.03 | 0.00 | 22 | 1012.5 |
| 20260503183931 | 72 | 336 | 3.0 | 9.0 | 0.00 | 0.03 | 0.00 | 23 | 1012.7 |
| 20260503183431 | 72 | 331 | 4.0 | 9.0 | 0.00 | 0.03 | 0.00 | 23 | 1012.6 |
| 20260503182931 | 72 | 347 | 3.0 | 9.0 | 0.00 | 0.03 | 0.00 | 23 | 1012.7 |
| 20260503182431 | 72 | 72 | 2.0 | 7.0 | 0.00 | 0.03 | 0.00 | 23 | 1012.7 |
| 20260503181931 | 72 | 15 | 3.0 | 7.0 | 0.00 | 0.03 | 0.00 | 25 | 1012.6 |
| 20260503181431 | 72 | 326 | 3.0 | 7.0 | 0.00 | 0.03 | 0.00 | 25 | 1012.8 |
| 20260503180931 | 72 | 336 | 3.0 | 7.0 | 0.00 | 0.03 | 0.00 | 25 | 1012.9 |
| 20260503180452 | 72 | 347 | 3.0 | 7.0 | 0.00 | 0.03 | 0.00 | 25 | 1012.9 |
| 20260503175952 | 71 | 360 | 2.0 | 7.0 | 0.00 | 0.03 | 0.00 | 26 | 1012.9 |
| 20260503175431 | 71 | 11 | 2.0 | 8.0 | 0.00 | 0.03 | 0.00 | 25 | 1013.0 |
| 20260503174952 | 71 | 92 | 3.0 | 8.0 | 0.00 | 0.03 | 0.00 | 22 | 1013.2 |
| 20260503174431 | 71 | 322 | 3.0 | 8.0 | 0.00 | 0.03 | 0.00 | 24 | 1013.3 |
| 20260503173931 | 70 | 8 | 3.0 | 8.0 | 0.00 | 0.03 | 0.00 | 24 | 1013.3 |
| 20260503173431 | 70 | 21 | 3.0 | 8.0 | 0.00 | 0.03 | 0.00 | 25 | 1013.3 |
| 20260503172931 | 70 | 326 | 3.0 | 8.0 | 0.00 | 0.03 | 0.00 | 24 | 1013.4 |
| 20260503172431 | 69 | 335 | 2.0 | 6.0 | 0.00 | 0.03 | 0.00 | 26 | 1013.4 |
| 20260503171952 | 70 | 144 | 2.0 | 6.0 | 0.00 | 0.03 | 0.00 | 25 | 1013.6 |
| 20260503171431 | 69 | 61 | 2.0 | 4.0 | 0.00 | 0.03 | 0.00 | 28 | 1013.6 |
| 20260503170932 | 70 | 72 | 2.0 | 6.0 | 0.00 | 0.03 | 0.00 | 29 | 1013.2 |
| 20260503170431 | 69 | 87 | 2.0 | 6.0 | 0.00 | 0.03 | 0.00 | 27 | 1013.5 |
| 20260503150931 | 63 | 267 | 3.0 | 6.0 | 0.00 | 0.03 | 0.00 | 48 | 1014.6 |
| 20260503150431 | 62 | 255 | 3.0 | 6.0 | 0.00 | 0.03 | 0.00 | 52 | 1014.7 |